HST

导读

HST即哈勃空间望远镜,是以天文学家爱德温·哈勃命名的轨道光学空间望远镜,于1990年4月24日由美国发现号航天飞机在肯尼迪航天中心发射升空。 它运行在距地约515公里的近地轨道,避开了地球大气层干扰,能获得清晰度极高的太空影像,还可观测臭氧层吸收的紫外线,服役三十余年仍产出诸多突破性天文成果,深刻重塑了人类对宇宙的认知。

基本信息
目录编号:
20580
目录名称:
HST
国际标识:
1990-037B
轨道中心:
EARTH
卫星名称:
HST
卫星全名:
--
卫星状态:
在轨 (已飞行13282 天)
发射日期:
1990-04-24 UTC
国别 :
美国 (US)
星等 :
--
轨道信息
数据来源 国际轨道数据
星历时间: 2026-09-03T18:08:14+0800
18小时前
查看轨道信息
半长轴: 6849.347km
偏心率: 0.0001478
轨道倾角: 28.473°
近地点辐角 291.555°
升交点赤经 265.539°
平近点角 68.489°
近地点: 470.197km
远地点: 472.223km
周期: 94.023分钟
每日圈数: 15.315426
详细信息
使用方式:
暂无
2D轨道图
3D轨道图
轨道高度分析图
轨道倾角分析图
轨道综合分析图
查看轨道综合分析图
交会数据列表
事件ID 空间交会对象 最接近时刻(TCA) 交会距离 交会风险概率(CRP) 交会风险指数(CRI) 操作
CDM_260904-102702-058006-969422
HST (20580)
2026-09-04T
10:27:35+0000
0.996 km
远距离
2.583187E-5 中风险 0.63
CDM_260901-220802-058006-969522
HST (20580)
2026-09-01T
22:08:48+0000
1.094 km
极远距离
1.874841E-5 中风险 0.6
CDM_260906-024402-058006-020121
HST (20580)
2026-09-06T
02:44:26+0000
1.010 km
极远距离
1.193089E-5 中风险 0.57
CDM_260904-134602-058006-754122
HST (20580)
2026-09-04T
13:46:29+0000
1.354 km
极远距离
8.501223E-6 低风险 0.54
CDM_260904-045902-058006-485621
HST (20580)
2026-09-04T
04:59:51+0000
1.439 km
极远距离
7.222026E-6 低风险 0.52
CDM_260906-061602-058006-861321
HST (20580)
2026-09-06T
06:16:38+0000
1.937 km
极远距离
2.925601E-6 低风险 0.44
CDM_260905-183602-058006-903821
HST (20580)
2026-09-05T
18:36:21+0000
1.960 km
极远距离
2.811425E-6 低风险 0.44
CDM_260905-231602-058006-880621
HST (20580)
2026-09-05T
23:16:00+0000
2.000 km
极远距离
2.682898E-6 低风险 0.44
CDM_260904-194902-058006-949721
HST (20580)
2026-09-04T
19:49:12+0000
1.970 km
极远距离
2.128949E-6 低风险 0.42
CDM_260906-070202-058006-891721
HST (20580)
2026-09-06T
07:02:27+0000
2.416 km
极远距离
1.770874E-6 低风险 0.4